sat.trackr.live / text

‹ back to catalog

STARLINK-5159

NORAD 53974 · 2022-125L

PAYLOAD ACTIVE UNKNOWN

§ Identity

Operator
Country
US
Launch date
2022-10-05
Launch site
AFWTR
Launch vehicle
Mass (kg)
RCS (m²)

Purposes: comms

External: N2YO · Heavens-Above · Gunter

§ Orbital elements

Epoch: 2026-09-20T16:03:49.134816Z

Period
93.85 min
Inclination
53.1613°
Eccentricity
0.0001029
Mean motion
15.34391039 rev/d
Perigee alt
462.0 km
Apogee alt
463.4 km
Semi-major
6,840.9 km
B*
3.2783e-5
RAAN
37.2666°
Arg perigee
87.7707°
Mean anomaly
272.3414°
Rev number
21,919

§ Raw data

STARLINK-51591 53974U 22125L   26263.66931869  .00000731  00000+0  32783-4 0  99942 53974  53.1613  37.2666 0001029  87.7707 272.3414 15.34391039219190

JSON: /api/v1/satellites/53974 · /tle

For live sub-satellite position, see the globe view (requires WebGL).

§ Visibility from observer

Set your observer location to see the next 7 days of passes ≥ 10°. The values pass through the URL so the page stays shareable.

No JS? Fill the form by hand. The geolocation button needs JavaScript.